Fairbanks Eiels, AK

9:28 AM AKDT on May 23, 2017 (GMT -0800)
Eielson Air Force Base

Weather History for PAEI - April, 2014

Change the Weather History Date:

Sunday, April 13, 2014

  Actual Average Record
Temperature  
Mean Temperature 33 °F -  
Max Temperature 51 °F 38 °F 55 °F (1988)
Min Temperature 16 °F 16 °F -19 °F (1992)
Degree Days  
Heating Degree Days 32    
Moisture  
Dew Point 18 °F    
Average Humidity 53    
Maximum Humidity 78    
Minimum Humidity 30    
Precipitation  
Precipitation 0.00 in - - ()
Sea Level Pressure  
Sea Level Pressure 29.91 in    
Wind  
Wind Speed 2 mph (NNW)    
Max Wind Speed 7 mph    
Max Gust Speed -    
Visibility 10 miles    
Events      
Averages and records for this station are not official NWS values.
T = Trace of Precipitation, MM = Missing Value Source: NWS Daily Summary

Daily Weather History Graph

Daily Weather History Graph

Search for Another Location

Airport or City:

Trip Planner

Search our weather history database for the weather conditions in past years. The results will help you decide how hot, cold, wet, or windy it might be!

Date:

Astronomy

Apr. 13, 2014 Rise Set
Actual Time 6:20 AM AKDT 9:18 PM AKDT
Civil Twilight 5:25 AM AKDT 10:15 PM AKDT
Nautical Twilight 4:03 AM AKDT 11:38 PM AKDT
Astronomical Twilight 2:21 AM AKDT 1:16 AM AKDT
Moon 7:43 PM AKDT (4/13) 5:59 AM AKDT (4/13)
Length of Visible Light 16h 50m
Length of Day
14h 58m
Waxing Gibbous, 98% of the Moon is Illuminated
Apr 13
Waxing Gibbous
Apr 14
Full
Apr 21
Last Quarter
Apr 28
New
May 6
First Quarter

Hourly Weather History & Observations

Time (AKDT) Temp. Windchill Dew Point Humidity Pressure Visibility Wind Dir Wind Speed Gust Speed Precip Events Conditions
12:58 AM 23.7 °F - 13.3 °F 64% 30.00 in 10.0 mi Calm Calm - N/A   Clear
1:58 AM 23.4 °F - 13.6 °F 66% 29.99 in 10.0 mi Calm Calm - N/A   Partly Cloudy
2:58 AM 23.5 °F 16.4 °F 13.8 °F 66% 29.99 in 10.0 mi North 5.8 mph - N/A   Clear
3:58 AM 21.6 °F 15.3 °F 12.9 °F 69% 29.96 in 10.0 mi North 4.6 mph - N/A   Clear
4:58 AM 19.8 °F - 12.6 °F 74% 29.96 in 10.0 mi Calm Calm - N/A   Clear
5:58 AM 18.3 °F - 12.6 °F 78% 29.94 in 10.0 mi Calm Calm - N/A   Clear
6:58 AM 16.5 °F - 10.4 °F 77% 29.93 in 10.0 mi Calm Calm - N/A   Clear
7:58 AM 21.7 °F - 13.5 °F 70% 29.92 in 10.0 mi Calm Calm - N/A   Clear
8:58 AM 25.7 °F - 16.9 °F 69% 29.90 in 10.0 mi North 1.2 mph - N/A   Scattered Clouds
9:58 AM 32.2 °F - 20.5 °F 62% 29.89 in 10.0 mi Calm Calm - N/A   Clear
10:58 AM 39.9 °F 37.8 °F 19.2 °F 43% 29.88 in 10.0 mi WSW 3.5 mph - N/A   Partly Cloudy
11:58 AM 40.5 °F - 19.4 °F 43% 29.88 in 10.0 mi Calm Calm - N/A   Clear
12:58 PM 46.2 °F - 18.1 °F 33% 29.87 in 10.0 mi Calm Calm - N/A   Clear
1:58 PM 46.9 °F - 22.5 °F 38% 29.87 in 10.0 mi Calm Calm - N/A   Clear
2:58 PM 49.8 °F - 19.4 °F 30% 29.86 in 10.0 mi Calm Calm - N/A   Mostly Cloudy
3:58 PM 50.5 °F - 20.5 °F 31% 29.86 in 10.0 mi Calm Calm - N/A   Partly Cloudy
4:58 PM 48.6 °F - 22.3 °F 36% 29.86 in 10.0 mi Calm Calm - N/A   Clear
5:58 PM 47.3 °F - 25.0 °F 42% 29.85 in 10.0 mi SE 5.8 mph - N/A   Clear
6:58 PM 50.2 °F - 21.4 °F 32% 29.88 in 10.0 mi Variable 4.6 mph - N/A   Clear
7:58 PM 46.6 °F - 22.6 °F 39% 29.89 in 10.0 mi Variable 3.5 mph - N/A   Clear
8:58 PM 47.5 °F - 21.9 °F 36% 29.90 in 10.0 mi Variable 5.8 mph - N/A   Clear
9:58 PM 40.6 °F 36.0 °F 21.4 °F 46% 29.92 in 10.0 mi Variable 6.9 mph - N/A   Clear
10:58 PM 38.1 °F - 23.0 °F 55% 29.93 in 10.0 mi Calm Calm - N/A   Clear
11:58 PM 33.4 °F 29.1 °F 22.3 °F 64% 29.94 in 10.0 mi Variable 4.6 mph - N/A   Clear